FIN7YB EFHK-ESSA

Flight info

Callsign FIN7YB
Flight time 0h 46m
Altitude 28000
Route ADIVO Y365 POGOK DCT RUNGA N872 XILAN
Aircraft A321/M-SADE1E2E3FGIJ1M3RWXYZ/LB1

Departure

Time 2026-04-23 18:20
Airport Helsinki Vantaa Airport (EFHK)

Arrival

Time 2026-04-23 19:06
Airport Stockholm-Arlanda Airport (ESSA)
Time Latitude Longitude Altitude Speed Heading
2026-04-23 17:42 60.31947 24.96931 164 ft 0 kts 242°
2026-04-23 18:00 60.31953 24.96953 163 ft 3 kts 248°
2026-04-23 18:00 60.31959 24.96997 163 ft 3 kts 267°
2026-04-23 18:00 60.31957 24.97041 163 ft 3 kts 297°
2026-04-23 18:01 60.31944 24.97073 163 ft 2 kts 332°
2026-04-23 18:01 60.31943 24.97075 163 ft 0 kts 333°
2026-04-23 18:04 60.31947 24.97070 163 ft 2 kts 333°
2026-04-23 18:04 60.31969 24.97048 163 ft 5 kts 333°
2026-04-23 18:05 60.32012 24.97002 163 ft 8 kts 332°
2026-04-23 18:05 60.32072 24.96936 163 ft 11 kts 330°
2026-04-23 18:05 60.32146 24.96850 164 ft 13 kts 330°
2026-04-23 18:05 60.32229 24.96753 165 ft 15 kts 329°
2026-04-23 18:06 60.32235 24.96637 167 ft 10 kts 226°
2026-04-23 18:06 60.32178 24.96513 168 ft 15 kts 227°
2026-04-23 18:06 60.32097 24.96332 167 ft 21 kts 227°
2026-04-23 18:06 60.32022 24.96166 169 ft 2 kts 227°
2026-04-23 18:07 60.32014 24.96149 169 ft 1 kts 227°
2026-04-23 18:07 60.32013 24.96146 169 ft 0 kts 227°
2026-04-23 18:08 60.32013 24.96145 169 ft 0 kts 227°
2026-04-23 18:09 60.32004 24.96126 169 ft 3 kts 228°
2026-04-23 18:09 60.31984 24.96082 170 ft 6 kts 228°
2026-04-23 18:09 60.31935 24.95973 169 ft 14 kts 227°
2026-04-23 18:09 60.31865 24.95820 169 ft 15 kts 227°
2026-04-23 18:10 60.31782 24.95636 169 ft 21 kts 226°
2026-04-23 18:10 60.31681 24.95415 169 ft 22 kts 228°
2026-04-23 18:10 60.31605 24.95249 169 ft 12 kts 228°
2026-04-23 18:10 60.31548 24.95121 168 ft 13 kts 227°
2026-04-23 18:11 60.31480 24.94971 167 ft 16 kts 227°
2026-04-23 18:11 60.31395 24.94786 164 ft 19 kts 227°
2026-04-23 18:11 60.31294 24.94567 159 ft 23 kts 227°
2026-04-23 18:11 60.31185 24.94324 159 ft 22 kts 228°
2026-04-23 18:12 60.31082 24.94097 157 ft 18 kts 226°
2026-04-23 18:12 60.31033 24.93926 158 ft 11 kts 265°
2026-04-23 18:12 60.31041 24.93853 159 ft 0 kts 297°
2026-04-23 18:17 60.31043 24.93848 159 ft 2 kts 299°
2026-04-23 18:17 60.31070 24.93779 159 ft 12 kts 316°
2026-04-23 18:18 60.31152 24.93723 160 ft 13 kts
2026-04-23 18:18 60.31204 24.93801 160 ft 8 kts 49°
2026-04-23 18:18 60.31208 24.93810 160 ft 0 kts 47°
2026-04-23 18:19 60.31245 24.93891 159 ft 33 kts 47°
2026-04-23 18:20 60.31576 24.94615 167 ft 105 kts 47°
2026-04-23 18:20 60.32204 24.95998 182 ft 160 kts 46°
2026-04-23 18:20 60.32960 24.97701 837 ft 158 kts 46°
2026-04-23 18:20 60.33689 24.99366 1616 ft 157 kts 44°
2026-04-23 18:21 60.34472 25.01077 1953 ft 176 kts 44°
2026-04-23 18:21 60.35357 25.03003 2200 ft 199 kts 44°
2026-04-23 18:21 60.36347 25.05161 2418 ft 222 kts 44°
2026-04-23 18:21 60.37450 25.07576 2772 ft 244 kts 44°
2026-04-23 18:22 60.38615 25.10149 3524 ft 250 kts 44°
2026-04-23 18:22 60.39983 25.12276 4340 ft 249 kts 20°
2026-04-23 18:22 60.41672 25.12907 5163 ft 249 kts
2026-04-23 18:22 60.43420 25.12969 6011 ft 252 kts 360°
2026-04-23 18:23 60.44584 25.12990 6536 ft 255 kts 358°
2026-04-23 18:23 60.48084 25.09033 8455 ft 264 kts 303°
2026-04-23 18:24 60.48337 25.01524 10038 ft 288 kts 264°
2026-04-23 18:24 60.47874 24.97398 10261 ft 312 kts 263°
2026-04-23 18:24 60.47367 24.92960 10448 ft 333 kts 263°
2026-04-23 18:25 60.46275 24.83627 11634 ft 345 kts 263°
2026-04-23 18:25 60.45716 24.78862 12316 ft 349 kts 264°
2026-04-23 18:25 60.45154 24.74039 12982 ft 353 kts 264°
2026-04-23 18:25 60.44593 24.69210 13659 ft 356 kts 264°
2026-04-23 18:26 60.44017 24.64264 14249 ft 360 kts 265°
2026-04-23 18:26 60.43440 24.59319 14865 ft 363 kts 265°
2026-04-23 18:26 60.42854 24.54333 15477 ft 366 kts 265°
2026-04-23 18:26 60.42263 24.49305 16074 ft 369 kts 265°
2026-04-23 18:27 60.41666 24.44221 16683 ft 372 kts 266°
2026-04-23 18:27 60.41064 24.39099 17299 ft 376 kts 266°
2026-04-23 18:27 60.40454 24.33927 17902 ft 379 kts 266°
2026-04-23 18:27 60.39835 24.28731 18461 ft 382 kts 266°
2026-04-23 18:28 60.39202 24.23444 18974 ft 385 kts 266°
2026-04-23 18:28 60.38563 24.18117 19490 ft 389 kts 266°
2026-04-23 18:28 60.37922 24.12787 19997 ft 392 kts 266°
2026-04-23 18:28 60.37274 24.07417 20508 ft 395 kts 266°
2026-04-23 18:29 60.36618 24.02004 21027 ft 399 kts 266°
2026-04-23 18:29 60.35957 23.96595 21523 ft 402 kts 266°
2026-04-23 18:29 60.35272 23.91015 21996 ft 406 kts 267°
2026-04-23 18:29 60.34598 23.85532 22486 ft 409 kts 267°
2026-04-23 18:30 60.33912 23.79955 22951 ft 412 kts 267°
2026-04-23 18:30 60.33221 23.74322 23413 ft 415 kts 267°
2026-04-23 18:30 60.32510 23.68567 23796 ft 418 kts 267°
2026-04-23 18:30 60.31809 23.62937 24169 ft 421 kts 267°
2026-04-23 18:31 60.31569 23.61021 24302 ft 421 kts 267°
2026-04-23 18:31 60.30845 23.55129 24675 ft 424 kts 267°
2026-04-23 18:31 60.30133 23.49440 25040 ft 426 kts 267°
2026-04-23 18:31 60.29395 23.43622 25419 ft 429 kts 267°
2026-04-23 18:32 60.28648 23.37780 25798 ft 431 kts 267°
2026-04-23 18:32 60.27884 23.31838 26161 ft 434 kts 267°
2026-04-23 18:32 60.27125 23.25945 26531 ft 436 kts 267°
2026-04-23 18:32 60.26363 23.20007 26901 ft 438 kts 267°
2026-04-23 18:33 60.25610 23.14136 27237 ft 440 kts 267°
2026-04-23 18:33 60.24837 23.08155 27599 ft 443 kts 267°
2026-04-23 18:33 60.24048 23.02072 27859 ft 445 kts 267°
2026-04-23 18:33 60.23274 22.96122 27912 ft 445 kts 267°
2026-04-23 18:34 60.22487 22.90115 27912 ft 445 kts 266°
2026-04-23 18:34 60.21697 22.84107 27910 ft 444 kts 266°
2026-04-23 18:34 60.20904 22.78092 27915 ft 445 kts 266°
2026-04-23 18:34 60.20107 22.72072 27916 ft 445 kts 266°
2026-04-23 18:35 60.19309 22.66075 27915 ft 445 kts 266°
2026-04-23 18:35 60.18512 22.60066 27919 ft 445 kts 266°
2026-04-23 18:35 60.17710 22.54065 27929 ft 445 kts 266°
2026-04-23 18:35 60.16905 22.48063 27923 ft 445 kts 266°
2026-04-23 18:36 60.16094 22.42063 27915 ft 445 kts 266°
2026-04-23 18:36 60.15277 22.36055 27930 ft 445 kts 266°
2026-04-23 18:36 60.14467 22.30087 27932 ft 445 kts 266°
2026-04-23 18:36 60.13646 22.24071 27929 ft 446 kts 266°
2026-04-23 18:37 60.12827 22.18089 27933 ft 446 kts 265°
2026-04-23 18:37 60.11996 22.12050 27932 ft 446 kts 265°
2026-04-23 18:37 60.11171 22.06073 27933 ft 446 kts 265°
2026-04-23 18:37 60.10338 22.00080 27936 ft 446 kts 265°
2026-04-23 18:38 60.09501 21.94078 27935 ft 447 kts 265°
2026-04-23 18:38 60.08663 21.88096 27935 ft 447 kts 265°
2026-04-23 18:38 60.07821 21.82083 27944 ft 447 kts 265°
2026-04-23 18:38 60.06983 21.76108 27942 ft 447 kts 265°
2026-04-23 18:39 60.06137 21.70102 27943 ft 447 kts 265°
2026-04-23 18:39 60.05578 21.66146 27936 ft 447 kts 265°
2026-04-23 18:39 60.04442 21.58149 27942 ft 447 kts 265°
2026-04-23 18:39 60.03877 21.54181 27946 ft 447 kts 265°
2026-04-23 18:40 60.03024 21.48209 27947 ft 447 kts 264°
2026-04-23 18:40 60.02167 21.42240 27947 ft 447 kts 264°
2026-04-23 18:40 60.01309 21.36278 27961 ft 447 kts 264°
2026-04-23 18:40 60.00447 21.30330 27961 ft 447 kts 264°
2026-04-23 18:41 59.99578 21.24357 27946 ft 447 kts 264°
2026-04-23 18:41 59.98711 21.18411 27949 ft 447 kts 264°
2026-04-23 18:41 59.97838 21.12457 27952 ft 447 kts 264°
2026-04-23 18:41 59.96960 21.06495 27952 ft 447 kts 264°
2026-04-23 18:42 59.96080 21.00540 27955 ft 447 kts 264°
2026-04-23 18:42 59.95200 20.94601 27955 ft 447 kts 264°
2026-04-23 18:42 59.94318 20.88663 27960 ft 444 kts 264°
2026-04-23 18:42 59.93446 20.82860 27959 ft 433 kts 264°
2026-04-23 18:43 59.92587 20.77135 27959 ft 429 kts 264°
2026-04-23 18:43 59.91735 20.71429 27882 ft 426 kts 264°
2026-04-23 18:43 59.90891 20.65821 27609 ft 417 kts 264°
2026-04-23 18:43 59.90062 20.60355 27351 ft 409 kts 264°
2026-04-23 18:44 59.89248 20.54970 27084 ft 405 kts 264°
2026-04-23 18:44 59.88439 20.49594 26823 ft 403 kts 264°
2026-04-23 18:44 59.87634 20.44249 26563 ft 402 kts 264°
2026-04-23 18:44 59.86825 20.38924 26303 ft 401 kts 264°
2026-04-23 18:45 59.86017 20.33658 26024 ft 396 kts 264°
2026-04-23 18:45 59.85211 20.28437 25615 ft 394 kts 264°
2026-04-23 18:45 59.84409 20.23252 25225 ft 392 kts 264°
2026-04-23 18:45 59.83609 20.18072 24838 ft 392 kts 264°
2026-04-23 18:46 59.82825 20.12892 24536 ft 389 kts 264°
2026-04-23 18:46 59.82066 20.07744 24145 ft 386 kts 264°
2026-04-23 18:46 59.81318 20.02639 23738 ft 385 kts 264°
2026-04-23 18:46 59.80571 19.97548 23293 ft 383 kts 264°
2026-04-23 18:47 59.79826 19.92486 22827 ft 380 kts 264°
2026-04-23 18:47 59.79087 19.87479 22370 ft 378 kts 264°
2026-04-23 18:47 59.78349 19.82489 21919 ft 375 kts 264°
2026-04-23 18:47 59.77616 19.77536 21465 ft 372 kts 263°
2026-04-23 18:48 59.76887 19.72616 21020 ft 370 kts 263°
2026-04-23 18:48 59.76167 19.67742 20581 ft 367 kts 263°
2026-04-23 18:48 59.75446 19.62907 20211 ft 364 kts 263°
2026-04-23 18:48 59.74720 19.58085 19961 ft 365 kts 263°
2026-04-23 18:49 59.73995 19.53276 19715 ft 364 kts 262°
2026-04-23 18:49 59.73268 19.48468 19474 ft 363 kts 262°
2026-04-23 18:49 59.72541 19.43679 19228 ft 360 kts 262°
2026-04-23 18:49 59.71823 19.38958 18858 ft 356 kts 262°
2026-04-23 18:50 59.71351 19.35853 18573 ft 355 kts 262°
2026-04-23 18:50 59.70400 19.29604 17969 ft 353 kts 262°
2026-04-23 18:50 59.69693 19.24976 17534 ft 350 kts 261°
2026-04-23 18:50 59.68990 19.20392 17110 ft 346 kts 261°
2026-04-23 18:51 59.68289 19.15850 16696 ft 344 kts 260°
2026-04-23 18:51 59.67316 19.11467 16234 ft 351 kts 249°
2026-04-23 18:51 59.66143 19.07233 15802 ft 350 kts 248°
2026-04-23 18:51 59.64967 19.03042 15395 ft 347 kts 248°
2026-04-23 18:52 59.63802 18.98880 14991 ft 345 kts 248°
2026-04-23 18:52 59.62647 18.94740 14604 ft 342 kts 248°
2026-04-23 18:52 59.61512 18.90650 14184 ft 337 kts 248°
2026-04-23 18:52 59.60390 18.86595 13638 ft 334 kts 248°
2026-04-23 18:53 59.59285 18.82580 13065 ft 331 kts 248°
2026-04-23 18:53 59.58197 18.78600 12544 ft 328 kts 248°
2026-04-23 18:53 59.57140 18.74712 12383 ft 315 kts 248°
2026-04-23 18:53 59.56121 18.71003 12185 ft 300 kts 248°
2026-04-23 18:54 59.55135 18.67435 11755 ft 294 kts 248°
2026-04-23 18:54 59.54165 18.63910 11261 ft 291 kts 248°
2026-04-23 18:54 59.53211 18.60409 10791 ft 289 kts 248°
2026-04-23 18:54 59.52269 18.56929 10382 ft 283 kts 248°
2026-04-23 18:55 59.51383 18.53636 10068 ft 276 kts 248°
2026-04-23 18:55 59.50493 18.50318 9636 ft 273 kts 248°
2026-04-23 18:55 59.49612 18.47025 9216 ft 270 kts 248°
2026-04-23 18:55 59.48743 18.43783 8852 ft 264 kts 248°
2026-04-23 18:56 59.48184 18.41716 8761 ft 255 kts 248°
2026-04-23 18:56 59.47094 18.37736 8401 ft 243 kts 248°
2026-04-23 18:56 59.46293 18.34836 8011 ft 239 kts 248°
2026-04-23 18:56 59.45506 18.31987 7592 ft 236 kts 248°
2026-04-23 18:57 59.44724 18.29163 7202 ft 234 kts 248°
2026-04-23 18:57 59.43959 18.26411 6844 ft 231 kts 248°
2026-04-23 18:57 59.43190 18.23653 6487 ft 228 kts 248°
2026-04-23 18:57 59.42422 18.20903 6101 ft 226 kts 248°
2026-04-23 18:58 59.41681 18.18235 5715 ft 225 kts 248°
2026-04-23 18:58 59.40931 18.15532 5338 ft 225 kts 248°
2026-04-23 18:58 59.40188 18.12849 5080 ft 221 kts 248°
2026-04-23 18:58 59.39456 18.10197 4958 ft 219 kts 248°
2026-04-23 18:59 59.38730 18.07541 4537 ft 222 kts 248°
2026-04-23 18:59 59.38011 18.04871 4145 ft 222 kts 248°
2026-04-23 18:59 59.37477 18.02104 4025 ft 214 kts 269°
2026-04-23 18:59 59.37451 17.99202 4040 ft 213 kts 277°
2026-04-23 19:00 59.37517 17.96297 4035 ft 213 kts 278°
2026-04-23 19:00 59.37610 17.93406 4033 ft 212 kts 283°
2026-04-23 19:00 59.38222 17.90899 4031 ft 203 kts 317°
2026-04-23 19:00 59.39406 17.89430 4037 ft 202 kts 335°
2026-04-23 19:01 59.40694 17.88326 4036 ft 202 kts 338°
2026-04-23 19:01 59.42033 17.87756 4025 ft 191 kts 359°
2026-04-23 19:01 59.43307 17.88114 3953 ft 179 kts
2026-04-23 19:01 59.44506 17.88545 3771 ft 173 kts
2026-04-23 19:02 59.45288 17.88825 3651 ft 172 kts
2026-04-23 19:02 59.46859 17.89387 3340 ft 171 kts
2026-04-23 19:02 59.48032 17.89808 3102 ft 171 kts
2026-04-23 19:02 59.49198 17.90226 2866 ft 171 kts
2026-04-23 19:03 59.50365 17.90646 2609 ft 169 kts
2026-04-23 19:03 59.51517 17.91060 2379 ft 169 kts
2026-04-23 19:03 59.52658 17.91471 2159 ft 158 kts
2026-04-23 19:03 59.53720 17.91853 1933 ft 152 kts
2026-04-23 19:04 59.54752 17.92225 1727 ft 150 kts
2026-04-23 19:04 59.55772 17.92593 1524 ft 144 kts
2026-04-23 19:04 59.56736 17.92940 1327 ft 139 kts
2026-04-23 19:04 59.57672 17.93278 1138 ft 137 kts
2026-04-23 19:05 59.58618 17.93620 953 ft 137 kts
2026-04-23 19:05 59.59561 17.93959 774 ft 138 kts
2026-04-23 19:05 59.60511 17.94298 591 ft 140 kts 10°
2026-04-23 19:05 59.61469 17.94647 399 ft 140 kts 12°
2026-04-23 19:06 59.62412 17.94991 240 ft 139 kts 11°
2026-04-23 19:06 59.63334 17.95327 144 ft 123 kts 11°
2026-04-23 19:06 59.64028 17.95570 144 ft 75 kts 11°
2026-04-23 19:06 59.64345 17.95691 145 ft 33 kts
2026-04-23 19:07 59.64540 17.95665 141 ft 26 kts 345°
2026-04-23 19:07 59.64661 17.95578 139 ft 3 kts 339°
2026-04-23 19:07 59.64685 17.95552 138 ft 5 kts 318°
2026-04-23 19:07 59.64692 17.95531 138 ft 0 kts 300°
2026-04-23 19:08 59.64697 17.95488 138 ft 6 kts 272°
2026-04-23 19:08 59.64663 17.95414 138 ft 11 kts 204°
2026-04-23 19:08 59.64578 17.95306 138 ft 18 kts 225°
2026-04-23 19:08 59.64504 17.95087 138 ft 20 kts 238°
2026-04-23 19:09 59.64426 17.94843 138 ft 21 kts 238°
2026-04-23 19:09 59.64345 17.94586 138 ft 23 kts 237°
2026-04-23 19:09 59.64258 17.94318 138 ft 24 kts 237°
2026-04-23 19:09 59.64168 17.94038 138 ft 25 kts 238°
2026-04-23 19:10 59.64075 17.93741 138 ft 26 kts 238°
2026-04-23 19:10 59.63996 17.93456 138 ft 15 kts 270°
2026-04-23 19:10 59.64001 17.93250 138 ft 16 kts 290°
2026-04-23 19:10 59.64054 17.93051 138 ft 17 kts 298°
2026-04-23 19:11 59.64113 17.92836 138 ft 18 kts 298°
2026-04-23 19:11 59.64166 17.92627 138 ft 14 kts 297°
2026-04-23 19:11 59.64195 17.92514 138 ft 10 kts 301°
2026-04-23 19:11 59.64251 17.92502 138 ft 10 kts 46°
2026-04-23 19:12 59.64259 17.92541 138 ft 4 kts 74°
2026-04-23 19:12 59.64276 17.92632 138 ft 6 kts 52°
2026-04-23 19:12 59.64313 17.92702 138 ft 8 kts 43°
2026-04-23 19:12 59.64344 17.92760 138 ft 2 kts 43°
2026-04-23 19:13 59.64349 17.92769 138 ft 2 kts 44°
2026-04-23 19:13 59.64360 17.92790 138 ft 1 kts 43°
2026-04-23 19:13 59.64365 17.92799 138 ft 0 kts 43°